Regional Weather Roundup
Issued by NWS

Home | Current Version | Previous Version | Text Only | Print | Product List | Glossary On
Versions: 1 2 3 4 5 6 7 8 9 10 11 12 13 14 15 16 17 18 19 20 21 22 23 24 25 26 27 28 29 30 31 32 33 34 35 36 37 38 39 40 41 42 43 44 45 46 47 48 49 50
000
ASUS43 KMKX 020100
RWRWI

WISCONSIN REGIONAL WEATHER ROUNDUP
NATIONAL WEATHER SERVICE MILWAUKEE/SULLIVAN WI
800 PM CDT WED JUL 01 2015

NOTE: "FAIR" INDICATES FEW OR NO CLOUDS BELOW 12,000 FEET WITH NO
SIGNIFICANT WEATHER AND/OR OBSTRUCTIONS TO VISIBILITY.

WIZ001-002-006>008-014>016-023>028-020200-
NORTHWEST WISCONSIN

CITY           SKY/WX    TMP DP  RH WIND       PRES   REMARKS
SUPERIOR ARPT  PTCLDY    62  57  84 NE7       29.99R
ASHLAND        CLEAR     62  51  67 NE3       30.01R
HAYWARD        CLEAR     70  53  54 CALM      30.01R
SIREN          CLEAR     72  51  47 CALM      30.00S
CUMBERLAND     CLEAR     68  50  52 N3        30.01R
RICE LAKE      CLOUDY    71  51  49 CALM      30.02R
CHETEK         CLEAR     70  53  54 NW3       30.00R
LADYSMITH      CLEAR     69  52  54 N7        30.02R
EAU CLAIRE     NOT AVBL
MENOMONIE      CLEAR     71  50  47 CALM      30.00R
NEW RICHMOND   CLEAR     70  52  52 CALM      30.00R
OSCEOLA        PTCLDY    73  52  49 CALM      30.02R
$$

WIZ003>005-009-010-017-018-020200-
NORTH CENTRAL WISCONSIN

CITY           SKY/WX    TMP DP  RH WIND       PRES   REMARKS
MANITOWISH WTR CLEAR     64  45  50 NE7       30.02R
ARBOR VITAE    CLEAR     65  47  51 NE3       30.01S
WOODRUFF       CLEAR     65  47  51 NE3       30.01S
RHINELANDER    CLEAR     64  48  56 CALM      30.02R
EAGLE RIVER    CLEAR     63  45  51 N3        30.01S
LAND O LAKES   CLEAR     64  46  53 N6        30.03S
PHILLIPS       CLEAR     66  46  48 N5        30.00S
TOMAHAWK       CLEAR     65  45  49 CALM      30.01S
MEDFORD        CLEAR     66  48  52 NE3       30.00R
MERRILL        CLEAR     67  47  49 N3        30.00R
$$

WIZ029-030-035-036-043>047-020200-
CENTRAL WISCONSIN

CITY           SKY/WX    TMP DP  RH WIND       PRES   REMARKS
WAUSAU         CLEAR     70  44  39 N3        29.98R
MOSINEE        CLEAR     66  45  45 N5        30.00R
MARSHFIELD     CLEAR     68  45  43 E3        29.99R
STEVENS POINT  CLEAR     68  46  44 NE3       29.99R
WAUPACA        CLEAR     71  49  46 CALM      29.98R
WAUTOMA        NOT AVBL
WISC RAPIDS    CLEAR     67  49  52 NW5       30.00R
CAMP DOUGLAS   NOT AVBL
$$

WIZ011>013-019>022-031-037>040-048>050-020200-
NORTHEAST WISCONSIN

CITY           SKY/WX    TMP DP  RH WIND       PRES   REMARKS
ANTIGO         CLEAR     64  51  64 N5        30.01R
SHAWANO        CLEAR     71  45  40 NE5       29.98R
OCONTO         CLEAR     63  49  60 E6        29.99R
STURGEON BAY   CLEAR     57  46  67 E5        30.03R
GREEN BAY      CLEAR     65  53  65 NE7       29.99R
MANITOWOC      NOT AVBL
APPLETON       PTCLDY    66  46  48 CALM      29.99R
CLINTONVILLE   CLEAR     70  43  37 CALM      29.97S
OSHKOSH        CLEAR     65  52  62 SE3       29.99R
$$

WIZ032>034-041-042-053>061-020200-
SOUTHWEST WISCONSIN

CITY           SKY/WX    TMP DP  RH WIND       PRES   REMARKS
LA CROSSE      CLEAR     68  52  56 NW3       29.98S
SPARTA         CLEAR     69  46  43 CALM      29.99R
VIROQUA        CLEAR     65  53  65 CALM      30.00S
BOSCOBEL       PTCLDY    63  56  78 CALM      29.99R
PRAIRIE DU CHI MOCLDY    65  52  61 CALM      29.99S
PLATTEVILLE    CLOUDY    65  51  59 CALM      29.99R
$$

WIZ056-057-062-063-064-067-068-020200-
SOUTH CENTRAL WISCONSIN

CITY           SKY/WX    TMP DP  RH WIND       PRES   REMARKS
REEDSBURG      CLEAR     68  50  53 CALM      29.97R
BARABOO/DELLS  CLEAR     67  50  53 CALM      29.98R
LONE ROCK      NOT AVBL
MINERAL POINT  PTCLDY    64  50  59 CALM      29.99R
MADISON        MOCLDY    66  53  63 NE3       29.98R
MIDDLETON      MOCLDY    68  49  50 CALM      29.99R
WATERTOWN      CLOUDY    64  57  77 E7        29.98R
MONROE         MOCLDY    63  52  67 CALM      29.98R
JANESVILLE     CLEAR     64  55  72 E8        29.97R
$$

WIZ051-052-058>065-066-070>072-020200-
SOUTHEAST WISCONSIN

CITY           SKY/WX    TMP DP  RH WIND       PRES   REMARKS
MILWAUKEE      MOCLDY    57  49  74 N5        30.01R
WAUKESHA       CLEAR     55  50  82 E6        30.02R
MILWAUKEE/TIMM NOT AVBL
RACINE         CLOUDY    56  49  77 CALM      30.02R
BURLINGTON     CLOUDY    55  49  81 E6        30.00R
KENOSHA        CLOUDY    56  50  80 E3        30.01R
FOND DU LAC    CLEAR     64  54  69 E7        30.00R
SHEBOYGAN      CLEAR     58  51  78 E7        30.01R
WEST BEND      CLEAR     59  52  77 CALM      30.00R
JUNEAU         MOCLDY    65  53  66 E5        30.00R
$$

LSZ147-162-020200-
LAKE SUPERIOR

STATION/POSITION TIME  TEMP    WIND        PRES    WAVE
                       AIR SEA DIR/SP/G            HT/PER
                 (UTC) (F)     (DEG/KT/KT) (MB)    (FT/S)
W MID LAKE BUOY  2350   51 39  160/  4/  4 1016.5F   0
DEVILS ISLAND    0000   63     140/  6/  8 1015.9F
SAXON HARBOR     0000   62        CALM     1015.9
$$

LMZ867-665-643>646-020200-
LAKE MICHIGAN

STATION/POSITION TIME  TEMP    WIND        PRES    WAVE
                       AIR SEA DIR/SP/G            HT/PER
                 (UTC) (F)     (DEG/KT/KT) (MB)    (FT/S)
CHAMBERS ISLAND  0000   62      40/ 10/ 16 1015.6R
S GREEN BAY BUOY 0000   65 69   70/ 14/ 16 1016.4
N MID LAKE BUOY  2350   54 46  300/  4/  4 1015.4S   1
NORTHPORT PIER   0000   62      20/  8/ 12 1015.6R
SISTER BAY       2314   64      20/ 11/ 14   N/A
ALGOMA LAKESHORE 0010             CALM       N/A
KEWAUNEE LAKESHO 0000   56     170/  2/  3 1015.0R
SHEBOYGAN LAKESH 0000   54      80/  6/  7 1016.1R
PORT WASHINGTON  0040   57      80/  2/  3 1016.6R
ATWATER BUOY     0000   55     310/  2/  4 1017.2R
MILWAUKEE LAKESH 0000   55      50/  3/  4   N/A
KENOSHA   LAKESH 0000   54      40/  5/  8 1015.6F
$$

TC  - TEMPERATURE IN CELSIUS
VSB - VISIBILITY IN STATUTE MILES
WCI - WIND CHILL INDEX
HX  - HEAT INDEX




USA.gov is the U.S. government's official web portal to all federal, state and local government web resources and services.